Tracking 31027 objects as of 19-Jul-2025
HD Live streaming from Space Station
objects crossing your sky now

STARLINK-31689

Track STARLINK-31689 now!
10-day predictions
STARLINK-31689 is classified as:


NORAD ID: 59567
Int'l Code: 2024-076D
Perigee: 489.5 km
Apogee: 490.9 km
Inclination: 43.0 °
Period: 94.3 minutes
Semi major axis: 6861 km
RCS: Unknown
Launch date: April 23, 2024
Source: United States (US)
Launch site: AIR FORCE EASTERN TEST RANGE (AFETR)
Your satellite tracking list
STARLINK-1578
Track 1 satellite(s)




NASA's NSSDC Master Catalog

Two Line Element Set (TLE):
1 59567U 24076D   25199.81914372 -.00001207  00000-0 -34371-4 0  9996
2 59567  42.9990 246.4547 0001043 282.4149  77.6586 15.27576770 70774
Source of the keplerian elements: AFSPC